INMARSAT 5-F1

Last updated on Nov. 15, 2019, 4:20 a.m. UTC

1 39476U 13073A   19318.17966191  .00000042  00000-0  00000+0 0  9990
2 39476   0.0143 292.0134 0000615  25.2692 223.0311  1.00271877 21792
UTC
Height (km)
Latitude
Longitude
Inclination
Orbital Period
UTC large
Height (km)
Speed (km/s)
/
Latitude / Longitude
Inclination (degrees)
Orbital Period (minutes)
Azimuth
Elevation
Range (km)
Doppler Factor
iOS Compass Heading
iOS Angle

Next 30 passes for location: Hong Kong

Rise time Rise Azimuth (degrees) Set time Set Azimuth (degrees) Duration Max altitude (degrees)

No matching passes for this satellites